SA3PJN-WX Weather Reports


Display with metric or nautical units.
time (UTC)temp
F
wind
direction
speed
MPH
gust
MPH
rain 1hr
in
rain 24hr
in
rain mn
in
humidity
%
barometer
mb
20260508000943 34 331 1.0 2.0 0.00 0.00 0.00 71 977.0
20260508000414 34 283 1.0 1.0 0.00 0.00 0.00 71 977.0
20260507235913 34 235 0.0 1.0 0.00 0.00 0.00 71 977.0
20260507235413 35 252 0.0 2.0 0.00 0.00 0.00 71 977.0
20260507234913 35 267 1.0 2.0 0.00 0.00 0.00 70 977.0
20260507234343 35 210 1.0 1.0 0.00 0.00 0.00 71 977.0
20260507233843 34 237 1.0 2.0 0.00 0.00 0.00 71 977.0
20260507233313 34 283 1.0 2.0 0.00 0.00 0.00 71 976.6
20260507232813 34 262 2.0 2.0 0.00 0.00 0.00 71 976.5
20260507232313 34 268 2.0 2.0 0.00 0.00 0.00 71 976.4
20260507231743 34 258 1.0 2.0 0.00 0.00 0.00 71 976.3
20260507231243 34 280 1.0 2.0 0.00 0.00 0.00 71 976.4
20260507230743 34 263 1.0 2.0 0.00 0.00 0.00 70 976.3
20260507230243 35 273 1.0 2.0 0.00 0.00 0.00 70 976.3
20260507225743 35 261 2.0 2.0 0.00 0.00 0.00 70 976.3
20260507225243 35 272 2.0 3.0 0.00 0.00 0.00 70 976.3
20260507224743 35 275 2.0 3.0 0.00 0.00 0.00 70 976.2
20260507224243 35 272 2.0 3.0 0.00 0.00 0.00 70 976.2
20260507223743 34 274 2.0 2.0 0.00 0.00 0.00 69 976.2
20260507223243 34 279 2.0 2.0 0.00 0.00 0.00 69 976.2
20260507222743 35 276 2.0 2.0 0.00 0.00 0.00 68 976.1
20260507222243 35 260 2.0 3.0 0.00 0.00 0.00 68 976.2
20260507221743 35 262 3.0 5.0 0.00 0.00 0.00 68 976.1
20260507221213 36 272 3.0 5.0 0.00 0.00 0.00 66 976.1
20260507220643 36 276 3.0 4.0 0.00 0.00 0.00 66 976.2
20260507220143 36 270 2.0 4.0 0.00 0.00 0.00 66 976.0
20260507215643 36 294 1.0 4.0 0.00 0.00 0.00 67 976.1
20260507215143 36 259 0.0 2.0 0.00 0.00 0.00 67 976.0
20260507214643 36 240 0.0 2.0 0.00 0.00 0.00 66 976.0
20260507214143 37 114 1.0 2.0 0.00 0.00 0.00 64 976.0
20260507213643 37 27 2.0 5.0 0.00 0.00 0.00 65 976.1
20260507213143 37 305 3.0 6.0 0.00 0.00 0.00 64 976.0
20260507212613 38 262 4.0 8.0 0.00 0.00 0.00 64 976.0
20260507212043 38 248 4.0 8.0 0.00 0.00 0.00 64 976.0
20260507211513 38 271 4.0 8.0 0.00 0.00 0.00 64 976.0
20260507211013 38 253 4.0 8.0 0.00 0.00 0.00 64 976.0
20260507210513 38 246 4.0 7.0 0.00 0.00 0.00 64 975.6
20260507210013 38 257 4.0 8.0 0.00 0.00 0.00 63 975.6
20260507205513 38 237 4.0 8.0 0.00 0.00 0.00 63 975.4
20260507205013 38 261 4.0 8.0 0.00 0.00 0.00 62 975.5
20260507204513 39 234 4.0 9.0 0.00 0.00 0.00 62 975.4
20260507204012 39 236 4.0 9.0 0.00 0.00 0.00 61 975.4
20260507203512 39 232 4.0 8.0 0.00 0.00 0.00 60 975.2
20260507203012 39 245 4.0 10.0 0.00 0.00 0.00 60 975.1
20260507202512 39 263 4.0 10.0 0.00 0.00 0.00 59 975.0
20260507202012 40 245 3.0 8.0 0.00 0.00 0.00 58 975.1
20260507201512 40 202 3.0 8.0 0.00 0.00 0.00 58 975.1
20260507201012 40 197 3.0 8.0 0.00 0.00 0.00 58 975.0
20260507200512 40 232 3.0 7.0 0.00 0.00 0.00 58 975.0
20260507200012 40 226 3.0 7.0 0.00 0.00 0.00 57 975.0
20260507195512 40 260 3.0 7.0 0.00 0.00 0.00 56 975.0
20260507195012 41 254 3.0 7.0 0.00 0.00 0.00 55 975.0
20260507194442 41 240 3.0 6.0 0.00 0.00 0.00 54 975.0
20260507193912 41 242 2.0 5.0 0.00 0.00 0.00 53 975.0
20260507193412 42 220 2.0 7.0 0.00 0.00 0.00 53 975.0
20260507192912 42 210 3.0 8.0 0.00 0.00 0.00 53 975.0
20260507192342 43 194 3.0 8.0 0.00 0.00 0.00 52 974.6
20260507191842 43 173 4.0 9.0 0.00 0.00 0.00 50 974.6
20260507191342 44 182 4.0 10.0 0.00 0.00 0.00 48 974.5
20260507190842 44 152 4.0 10.0 0.00 0.00 0.00 47 974.3
20260507190342 45 136 4.0 11.0 0.00 0.00 0.00 45 974.3
20260507185842 45 187 3.0 11.0 0.00 0.00 0.00 43 974.3
20260507185312 45 120 2.0 11.0 0.00 0.00 0.00 42 974.2
20260507184812 45 98 2.0 8.0 0.00 0.00 0.00 41 974.2
20260507184312 45 191 2.0 8.0 0.00 0.00 0.00 41 974.2
20260507183812 45 99 2.0 8.0 0.00 0.00 0.00 43 974.0
20260507183312 44 97 2.0 10.0 0.00 0.00 0.00 45 974.0
20260507182812 44 155 2.0 10.0 0.00 0.00 0.00 44 974.0
20260507182312 45 145 3.0 10.0 0.00 0.00 0.00 43 974.0
20260507181812 45 122 3.0 13.0 0.00 0.00 0.00 43 974.0
20260507181312 45 90 4.0 13.0 0.00 0.00 0.00 43 973.6
20260507180812 46 136 4.0 11.0 0.00 0.00 0.00 40 974.0
20260507180312 46 187 4.0 11.0 0.00 0.00 0.00 38 973.6
20260507175812 46 175 3.0 11.0 0.00 0.00 0.00 38 973.5
20260507175242 46 127 3.0 11.0 0.00 0.00 0.00 37 973.5
20260507174742 46 184 3.0 11.0 0.00 0.00 0.00 38 973.4
20260507174242 46 152 3.0 11.0 0.00 0.00 0.00 37 973.4
20260507173712 47 161 3.0 8.0 0.00 0.00 0.00 40 973.4
20260507173212 47 124 1.0 8.0 0.00 0.00 0.00 39 973.4
20260507172712 47 336 1.0 9.0 0.00 0.00 0.00 39 973.3
20260507172212 47 189 2.0 9.0 0.00 0.00 0.00 37 973.2
20260507171712 46 40 2.0 9.0 0.00 0.00 0.00 38 973.2
20260507171212 46 98 2.0 9.0 0.00 0.00 0.00 38 973.2
20260507170711 46 151 2.0 9.0 0.00 0.00 0.00 39 973.0
20260507170211 46 133 3.0 9.0 0.00 0.00 0.00 41 973.0
20260507165711 46 131 3.0 9.0 0.00 0.00 0.00 38 973.0
20260507165211 47 73 3.0 8.0 0.00 0.00 0.00 41 973.0
20260507164711 46 246 3.0 10.0 0.00 0.00 0.00 39 973.0
20260507164211 47 135 4.0 10.0 0.00 0.00 0.00 40 973.0
20260507163711 46 197 5.0 13.0 0.00 0.00 0.00 41 973.0
20260507163211 46 184 6.0 13.0 0.00 0.00 0.00 40 973.0
20260507162711 46 173 5.0 13.0 0.00 0.00 0.00 39 973.0
20260507162211 47 187 4.0 13.0 0.00 0.00 0.00 40 973.0
20260507161711 47 162 4.0 12.0 0.00 0.00 0.00 41 973.0
20260507161211 47 187 4.0 12.0 0.00 0.00 0.00 39 973.0
20260507160711 47 236 3.0 9.0 0.00 0.00 0.00 38 973.0
20260507160141 47 208 3.0 6.0 0.00 0.00 0.00 39 973.0
20260507155641 48 197 2.0 9.0 0.00 0.00 0.00 39 973.0
20260507155111 47 66 4.0 10.0 0.00 0.00 0.00 40 973.0
20260507154541 47 150 5.0 18.0 0.00 0.00 0.00 40 973.0
20260507154041 47 183 6.0 18.0 0.00 0.00 0.00 41 972.6
20260507153541 47 187 6.0 13.0 0.00 0.00 0.00 41 973.0
20260507153011 47 199 6.0 14.0 0.00 0.00 0.00 41 973.0
20260507152511 47 226 7.0 19.0 0.00 0.00 0.00 40 973.0
20260507151941 47 187 7.0 19.0 0.00 0.00 0.00 39 972.6
20260507151411 48 238 6.0 15.0 0.00 0.00 0.00 38 972.6
20260507150911 48 195 6.0 15.0 0.00 0.00 0.00 39 972.5
20260507150411 47 199 6.0 15.0 0.00 0.00 0.00 38 972.4
20260507145841 48 172 5.0 13.0 0.00 0.00 0.00 38 972.4
20260507145341 49 151 5.0 13.0 0.00 0.00 0.00 35 972.3
20260507144811 50 192 4.0 13.0 0.00 0.00 0.00 33 972.4
20260507144241 53 95 3.0 9.0 0.00 0.00 0.00 33 972.3
20260507143741 54 88 2.0 8.0 0.00 0.00 0.00 31 972.4
20260507143241 55 94 3.0 13.0 0.00 0.00 0.00 33 972.4
20260507142711 53 67 2.0 13.0 0.00 0.00 0.00 34 972.3
20260507142211 53 82 2.0 10.0 0.00 0.00 0.00 35 972.4
20260507141641 51 65 3.0 10.0 0.00 0.00 0.00 34 972.3
20260507141141 49 139 4.0 12.0 0.00 0.00 0.00 38 972.4
20260507140611 48 119 5.0 12.0 0.00 0.00 0.00 40 972.3
20260507140111 47 182 4.0 12.0 0.00 0.00 0.00 39 972.2
20260507135610 48 184 3.0 9.0 0.00 0.00 0.00 37 972.3
20260507135111 48 111 3.0 10.0 0.00 0.00 0.00 37 972.3
20260507134610 48 170 3.0 12.0 0.00 0.00 0.00 36 972.2
20260507134110 49 91 4.0 13.0 0.00 0.00 0.00 36 972.1
20260507133610 49 195 5.0 13.0 0.00 0.00 0.00 38 972.1
20260507133110 47 180 5.0 13.0 0.00 0.00 0.00 38 972.0
20260507132610 49 102 5.0 16.0 0.00 0.00 0.00 37 972.0
20260507132110 48 173 4.0 16.0 0.00 0.00 0.00 36 972.0
20260507131541 50 231 3.0 12.0 0.00 0.00 0.00 35 972.0
20260507131040 51 2 4.0 9.0 0.00 0.00 0.00 35 972.0
20260507130540 50 277 4.0 11.0 0.00 0.00 0.00 34 972.0
20260507130040 49 213 4.0 14.0 0.00 0.00 0.00 35 972.0
20260507125510 50 134 4.0 14.0 0.00 0.00 0.00 37 972.0
20260507124940 50 202 4.0 14.0 0.00 0.00 0.00 37 972.1
20260507124410 48 191 5.0 17.0 0.00 0.00 0.00 37 972.1
20260507123910 48 184 6.0 17.0 0.00 0.00 0.00 39 972.0
20260507123410 47 184 6.0 15.0 0.00 0.00 0.00 41 972.0
20260507122840 48 190 6.0 15.0 0.00 0.00 0.00 41 972.1
20260507122340 47 77 6.0 16.0 0.00 0.00 0.00 42 972.0
20260507121840 48 133 6.0 16.0 0.00 0.00 0.00 41 972.0
20260507121310 49 4 5.0 15.0 0.00 0.00 0.00 41 972.0
20260507120810 49 219 5.0 15.0 0.00 0.00 0.00 41 972.0
20260507120240 50 124 5.0 15.0 0.00 0.00 0.00 40 972.0
20260507115740 49 109 5.0 15.0 0.00 0.00 0.00 40 972.0
20260507115240 49 126 6.0 15.0 0.00 0.00 0.00 41 972.0
20260507114740 47 154 6.0 17.0 0.00 0.00 0.00 41 972.0
20260507114240 48 217 6.0 17.0 0.00 0.00 0.00 44 972.0
20260507113740 48 180 6.0 17.0 0.00 0.00 0.00 43 972.0
20260507113240 48 236 5.0 13.0 0.00 0.00 0.00 45 972.0
20260507112740 48 129 5.0 16.0 0.00 0.00 0.00 44 972.0
20260507112240 47 256 6.0 17.0 0.00 0.00 0.00 46 972.0
20260507111740 47 212 6.0 17.0 0.00 0.00 0.00 46 971.6
20260507111210 48 119 5.0 13.0 0.00 0.00 0.00 45 971.6
20260507110710 47 80 5.0 14.0 0.00 0.00 0.00 45 971.6
20260507110140 46 176 6.0 14.0 0.00 0.00 0.00 48 971.6
20260507105640 45 125 5.0 12.0 0.00 0.00 0.00 49 971.6
20260507105140 46 184 5.0 13.0 0.00 0.00 0.00 47 971.6
20260507104640 47 116 4.0 14.0 0.00 0.00 0.00 48 971.5
20260507104140 49 145 4.0 14.0 0.00 0.00 0.00 45 971.5
20260507103610 50 170 3.0 14.0 0.00 0.00 0.00 43 971.5
20260507103040 50 340 3.0 12.0 0.00 0.00 0.00 42 971.4
20260507102510 53 116 3.0 11.0 0.00 0.00 0.00 42 971.4
20260507101940 53 132 4.0 11.0 0.00 0.00 0.00 43 971.4
20260507101440 54 101 3.0 10.0 0.00 0.00 0.00 41 971.3
20260507100940 54 122 3.0 9.0 0.00 0.00 0.00 44 971.6
20260507100440 53 169 3.0 11.0 0.00 0.00 0.00 45 971.7
20260507095940 53 113 4.0 11.0 0.00 0.00 0.00 44 971.3
20260507095440 52 173 4.0 11.0 0.00 0.00 0.00 46 971.3
20260507094910 53 198 3.0 8.0 0.00 0.00 0.00 44 971.2
20260507094409 53 179 3.0 11.0 0.00 0.00 0.00 46 971.6
20260507093840 52 168 3.0 11.0 0.00 0.00 0.00 47 971.5
20260507093339 52 217 3.0 8.0 0.00 0.00 0.00 45 971.3
20260507092839 52 189 3.0 9.0 0.00 0.00 0.00 46 971.6
20260507092310 52 200 3.0 9.0 0.00 0.00 0.00 46 971.5
20260507091809 51 145 3.0 14.0 0.00 0.00 0.00 50 971.5
20260507091309 51 264 4.0 14.0 0.00 0.00 0.00 53 971.5
20260507090809 50 95 3.0 11.0 0.00 0.00 0.00 48 971.2
20260507090309 52 144 3.0 9.0 0.00 0.00 0.00 50 971.4
20260507085809 51 243 3.0 10.0 0.00 0.00 0.00 53 971.5
20260507085309 50 153 3.0 12.0 0.00 0.00 0.00 52 971.3
20260507084809 50 183 3.0 12.0 0.00 0.00 0.00 53 971.3
20260507084309 51 173 3.0 10.0 0.00 0.00 0.00 52 971.4
20260507083809 51 99 3.0 10.0 0.00 0.00 0.00 53 971.2
20260507083309 50 139 4.0 10.0 0.00 0.00 0.00 54 971.2
20260507082809 49 151 3.0 10.0 0.00 0.00 0.00 56 971.1
20260507082309 50 135 3.0 9.0 0.00 0.00 0.00 55 971.2
20260507081809 50 158 3.0 12.0 0.00 0.00 0.00 57 971.1
20260507081309 49 144 3.0 12.0 0.00 0.00 0.00 57 971.1
20260507080739 49 110 3.0 12.0 0.00 0.00 0.00 57 971.1
20260507080239 49 132 3.0 9.0 0.00 0.00 0.00 56 971.1
20260507075709 49 147 3.0 9.0 0.00 0.00 0.00 60 971.1
20260507075209 48 128 3.0 9.0 0.00 0.00 0.00 58 971.0
20260507074709 49 181 3.0 9.0 0.00 0.00 0.00 60 971.0
20260507074209 49 166 3.0 8.0 0.00 0.00 0.00 58 971.1
20260507073709 50 148 3.0 8.0 0.00 0.00 0.00 57 970.9
20260507073209 50 165 3.0 8.0 0.00 0.00 0.00 58 970.9
20260507072709 49 160 3.0 7.0 0.00 0.00 0.00 59 970.9
20260507072209 49 112 2.0 7.0 0.00 0.00 0.00 57 970.8
20260507071709 50 185 2.0 7.0 0.00 0.00 0.00 57 970.8
20260507071209 49 114 2.0 7.0 0.00 0.00 0.00 59 970.9
20260507070709 48 88 3.0 11.0 0.00 0.00 0.00 58 970.9
20260507070209 46 150 3.0 11.0 0.00 0.00 0.00 58 970.7
20260507065708 46 111 4.0 11.0 0.00 0.00 0.00 60 970.8
20260507065208 44 69 4.0 10.0 0.00 0.00 0.00 65 970.8
20260507064709 43 189 4.0 10.0 0.00 0.00 0.00 62 970.5
20260507064208 43 158 3.0 10.0 0.00 0.00 0.00 60 970.4
20260507063708 44 208 4.0 13.0 0.00 0.00 0.00 61 970.7
20260507063208 44 184 4.0 13.0 0.00 0.00 0.00 64 970.6
20260507062708 41 170 5.0 13.0 0.00 0.00 0.00 66 970.2
20260507062208 42 191 4.0 11.0 0.00 0.00 0.00 66 970.3
20260507061708 42 146 5.0 13.0 0.00 0.00 0.00 66 970.2
20260507061208 42 157 5.0 13.0 0.00 0.00 0.00 67 970.2
20260507060708 41 207 5.0 13.0 0.00 0.00 0.00 68 970.1
20260507060208 41 189 5.0 13.0 0.00 0.00 0.00 67 970.2
20260507055708 42 164 4.0 13.0 0.00 0.00 0.00 66 970.2
20260507055138 43 178 3.0 9.0 0.00 0.00 0.00 64 970.2
20260507054638 44 204 3.0 8.0 0.00 0.00 0.00 64 970.4
20260507054138 43 182 3.0 10.0 0.00 0.00 0.00 64 970.2
20260507053638 42 183 3.0 10.0 0.00 0.00 0.00 64 970.1
20260507053138 43 163 3.0 7.0 0.00 0.00 0.00 64 970.6
20260507052638 44 195 3.0 9.0 0.00 0.00 0.00 64 970.3
20260507052138 43 169 3.0 9.0 0.00 0.00 0.00 63 970.0
20260507051638 44 149 3.0 8.0 0.00 0.00 0.00 65 970.3
20260507051138 43 154 3.0 8.0 0.00 0.00 0.00 65 970.4
20260507050638 42 207 3.0 8.0 0.00 0.00 0.00 64 970.0
20260507050108 44 285 3.0 8.0 0.00 0.00 0.00 63 970.3
20260507045608 43 144 2.0 7.0 0.00 0.00 0.00 63 970.1
20260507045038 45 197 1.0 6.0 0.00 0.00 0.00 60 970.0
20260507044508 45 104 1.0 6.0 0.00 0.00 0.00 62 970.1
20260507043938 43 240 1.0 5.0 0.00 0.00 0.00 66 970.2
20260507043438 42 135 2.0 6.0 0.00 0.00 0.00 69 969.9
20260507042938 39 208 2.0 10.0 0.00 0.00 0.00 72 969.6
20260507042438 38 171 2.0 10.0 0.00 0.00 0.00 74 970.0
20260507041938 40 10 2.0 7.0 0.00 0.00 0.00 73 969.9
20260507041408 38 191 2.0 8.0 0.00 0.00 0.00 75 969.4
20260507040908 35 95 2.0 8.0 0.00 0.00 0.00 83 969.3
20260507040408 35 141 1.0 5.0 0.00 0.00 0.00 85 969.3
20260507035908 33 164 1.0 4.0 0.00 0.00 0.00 87 969.3
20260507035408 31 221 1.0 4.0 0.00 0.00 0.00 91 969.3
20260507034908 31 136 1.0 4.0 0.00 0.00 0.00 91 969.3
20260507034408 31 354 1.0 4.0 0.00 0.00 0.00 92 969.3
20260507033908 31 175 1.0 3.0 0.00 0.00 0.00 91 969.3
20260507033408 31 173 2.0 3.0 0.00 0.00 0.00 93 969.2
20260507032908 31 189 1.0 3.0 0.00 0.00 0.00 92 969.2
20260507032338 31 196 1.0 3.0 0.00 0.00 0.00 90 969.2
20260507031838 31 202 1.0 3.0 0.00 0.00 0.00 88 969.2
20260507031338 30 317 1.0 4.0 0.00 0.00 0.00 88 969.3
20260507030838 30 99 1.0 4.0 0.00 0.00 0.00 89 969.2
20260507030338 30 70 2.0 4.0 0.00 0.00 0.00 87 969.2
20260507025837 31 51 2.0 4.0 0.00 0.00 0.00 87 969.3
20260507025337 31 11 2.0 6.0 0.00 0.00 0.00 88 969.1
20260507024808 31 323 1.0 6.0 0.00 0.00 0.00 93 969.0
20260507024307 31 241 1.0 4.0 0.00 0.00 0.00 93 969.0
20260507023807 31 30 1.0 5.0 0.00 0.00 0.00 92 969.0
20260507023307 31 228 1.0 5.0 0.00 0.00 0.00 92 969.1
20260507022807 30 112 1.0 5.0 0.00 0.00 0.00 91 969.0
20260507022307 30 116 1.0 4.0 0.00 0.00 0.00 90 969.0
20260507021737 30 161 1.0 5.0 0.00 0.00 0.00 90 969.0
20260507021237 30 251 2.0 7.0 0.00 0.00 0.00 91 969.0
20260507020737 30 190 2.0 7.0 0.00 0.00 0.00 91 969.0
20260507020237 31 187 2.0 6.0 0.00 0.00 0.00 89 969.0
20260507015737 31 179 2.0 6.0 0.00 0.00 0.00 89 968.6
20260507015237 31 209 2.0 7.0 0.00 0.00 0.00 89 969.0
20260507014707 31 189 2.0 7.0 0.00 0.00 0.00 89 968.6
20260507014207 31 188 2.0 6.0 0.00 0.00 0.00 89 968.5
20260507013637 31 185 2.0 6.0 0.00 0.00 0.00 88 968.5
20260507013137 31 167 2.0 6.0 0.00 0.00 0.00 88 968.5
20260507012637 31 220 2.0 8.0 0.00 0.00 0.00 88 968.5
20260507012137 32 238 3.0 12.0 0.00 0.00 0.00 87 968.4
20260507011607 32 190 3.0 12.0 0.00 0.00 0.00 87 968.4
20260507011037 32 195 3.0 10.0 0.00 0.00 0.00 87 968.5
20260507010537 31 182 2.0 10.0 0.00 0.00 0.00 87 968.5
20260507010037 31 193 2.0 6.0 0.00 0.00 0.00 87 968.4
20260507005537 31 209 3.0 7.0 0.00 0.00 0.00 86 968.3
20260507005037 31 186 3.0 7.0 0.00 0.00 0.00 86 968.3
20260507004537 31 188 2.0 7.0 0.00 0.00 0.00 85 968.2
20260507004037 31 169 2.0 7.0 0.00 0.00 0.00 84 968.1
20260507003507 31 183 2.0 7.0 0.00 0.00 0.00 84 968.1
20260507003007 31 117 2.0 5.0 0.00 0.00 0.00 82 968.2
20260507002437 32 191 2.0 5.0 0.00 0.00 0.00 81 968.1
20260507001937 32 198 2.0 5.0 0.00 0.00 0.00 81 968.1
20260507001437 32 188 1.0 5.0 0.00 0.00 0.00 80 968.1